| time (UTC) | temp C | wind direction | speed KPH | gust KPH | rain 1hr cm | rain 24hr cm | rain mn cm | humidity % | barometer mb |
| 20260505015516 | 15 | 0.0 | 1.6 | 0.00 | 0.00 | 0.00 | 68 | 1013.5 | |
| 20260505014537 | 15 | 0.0 | 0.0 | 0.00 | 0.00 | 0.00 | 66 | 1013.6 | |
| 20260505013516 | 16 | 0.0 | 3.2 | 0.00 | 0.00 | 0.00 | 64 | 1013.6 | |
| 20260505012516 | 16 | 315 | 1.6 | 1.6 | 0.00 | 0.00 | 0.00 | 63 | 1013.5 |
| 20260505011537 | 16 | 315 | 1.6 | 1.6 | 0.00 | 0.00 | 0.00 | 64 | 1013.6 |
| 20260505010516 | 17 | 315 | 1.6 | 3.2 | 0.00 | 0.00 | 0.00 | 61 | 1013.0 |
| 20260505005536 | 17 | 338 | 1.6 | 1.6 | 0.00 | 0.00 | 0.00 | 61 | 1013.2 |
| 20260505004516 | 17 | 338 | 1.6 | 1.6 | 0.00 | 0.00 | 0.00 | 60 | 1013.0 |
| 20260505003516 | 18 | 23 | 1.6 | 1.6 | 0.00 | 0.00 | 0.00 | 59 | 1012.8 |
| 20260505002636 | 18 | 293 | 1.6 | 1.6 | 0.00 | 0.00 | 0.00 | 58 | 1012.8 |
| 20260505001516 | 19 | 0.0 | 1.6 | 0.00 | 0.00 | 0.00 | 56 | 1012.8 | |
| 20260505000537 | 20 | 0.0 | 3.2 | 0.00 | 0.00 | 0.00 | 51 | 1012.6 | |
| 20260504235536 | 21 | 0.0 | 3.2 | 0.00 | 0.00 | 0.00 | 50 | 1012.8 | |
| 20260504234516 | 21 | 0.0 | 3.2 | 0.00 | 0.00 | 0.00 | 48 | 1012.7 | |
| 20260504233536 | 21 | 248 | 1.6 | 4.8 | 0.00 | 0.00 | 0.00 | 47 | 1012.6 |
| 20260504232516 | 22 | 225 | 3.2 | 12.9 | 0.00 | 0.00 | 0.00 | 46 | 1012.9 |
| 20260504231516 | 22 | 225 | 3.2 | 6.4 | 0.00 | 0.00 | 0.00 | 44 | 1012.8 |
| 20260504230516 | 23 | 225 | 3.2 | 9.7 | 0.00 | 0.00 | 0.00 | 44 | 1012.8 |
| 20260504225536 | 23 | 225 | 3.2 | 6.4 | 0.00 | 0.00 | 0.00 | 44 | 1013.2 |
| 20260504224516 | 23 | 203 | 3.2 | 9.7 | 0.00 | 0.00 | 0.00 | 45 | 1013.1 |
| 20260504223556 | 23 | 203 | 4.8 | 11.3 | 0.00 | 0.00 | 0.00 | 44 | 1013.3 |
| 20260504222523 | 24 | 225 | 6.4 | 11.3 | 0.00 | 0.00 | 0.00 | 42 | 1013.3 |
| 20260504221516 | 24 | 225 | 4.8 | 12.9 | 0.00 | 0.00 | 0.00 | 45 | 1013.3 |
| 20260504220516 | 24 | 270 | 4.8 | 12.9 | 0.00 | 0.00 | 0.00 | 43 | 1013.2 |
| 20260504215516 | 24 | 248 | 3.2 | 11.3 | 0.00 | 0.00 | 0.00 | 41 | 1013.3 |
| 20260504214516 | 24 | 203 | 8.0 | 16.1 | 0.00 | 0.00 | 0.00 | 41 | 1013.3 |
| 20260504213516 | 24 | 225 | 3.2 | 8.0 | 0.00 | 0.00 | 0.00 | 45 | 1013.4 |
| 20260504212516 | 24 | 203 | 4.8 | 11.3 | 0.00 | 0.00 | 0.00 | 43 | 1013.4 |
| 20260504211556 | 24 | 225 | 4.8 | 11.3 | 0.00 | 0.00 | 0.00 | 43 | 1013.4 |
| 20260504210516 | 24 | 225 | 3.2 | 8.0 | 0.00 | 0.00 | 0.00 | 44 | 1013.5 |
| 20260504205516 | 24 | 203 | 6.4 | 17.7 | 0.00 | 0.00 | 0.00 | 45 | 1013.7 |
| 20260504204516 | 24 | 203 | 8.0 | 16.1 | 0.00 | 0.00 | 0.00 | 44 | 1013.8 |
| 20260504203517 | 24 | 248 | 6.4 | 20.9 | 0.00 | 0.00 | 0.00 | 43 | 1014.0 |
| 20260504202516 | 24 | 225 | 8.0 | 17.7 | 0.00 | 0.00 | 0.00 | 41 | 1014.0 |
| 20260504201536 | 24 | 225 | 6.4 | 14.5 | 0.00 | 0.00 | 0.00 | 42 | 1014.2 |
| 20260504200516 | 24 | 225 | 6.4 | 25.7 | 0.00 | 0.00 | 0.00 | 43 | 1014.3 |
| 20260504195515 | 24 | 180 | 6.4 | 19.3 | 0.00 | 0.00 | 0.00 | 47 | 1014.4 |
| 20260504194516 | 23 | 225 | 6.4 | 12.9 | 0.00 | 0.00 | 0.00 | 47 | 1014.5 |
| 20260504193536 | 23 | 293 | 3.2 | 8.0 | 0.00 | 0.00 | 0.00 | 45 | 1014.5 |
| 20260504192536 | 23 | 225 | 4.8 | 9.7 | 0.00 | 0.00 | 0.00 | 49 | 1014.8 |
| 20260504191536 | 23 | 203 | 6.4 | 12.9 | 0.00 | 0.00 | 0.00 | 48 | 1015.1 |
| 20260504190515 | 23 | 225 | 4.8 | 11.3 | 0.00 | 0.00 | 0.00 | 45 | 1015.5 |
| 20260504185516 | 23 | 203 | 4.8 | 14.5 | 0.00 | 0.00 | 0.00 | 47 | 1015.5 |
| 20260504184516 | 22 | 270 | 4.8 | 14.5 | 0.00 | 0.00 | 0.00 | 49 | 1015.5 |
| 20260504183516 | 22 | 270 | 4.8 | 16.1 | 0.00 | 0.00 | 0.00 | 50 | 1015.8 |
| 20260504182515 | 22 | 225 | 6.4 | 16.1 | 0.00 | 0.00 | 0.00 | 47 | 1016.0 |
| 20260504181515 | 22 | 225 | 6.4 | 14.5 | 0.00 | 0.00 | 0.00 | 50 | 1015.9 |
| 20260504180516 | 22 | 203 | 3.2 | 6.4 | 0.00 | 0.00 | 0.00 | 52 | 1016.2 |
| 20260504175515 | 22 | 270 | 4.8 | 16.1 | 0.00 | 0.00 | 0.00 | 49 | 1016.2 |
| 20260504174515 | 21 | 203 | 4.8 | 11.3 | 0.00 | 0.00 | 0.00 | 53 | 1016.3 |
| 20260504173516 | 21 | 248 | 3.2 | 8.0 | 0.00 | 0.00 | 0.00 | 54 | 1016.4 |
| 20260504172515 | 21 | 203 | 4.8 | 11.3 | 0.00 | 0.00 | 0.00 | 50 | 1016.6 |
| 20260504171515 | 21 | 225 | 6.4 | 16.1 | 0.00 | 0.00 | 0.00 | 50 | 1016.7 |
| 20260504170515 | 20 | 203 | 4.8 | 9.7 | 0.00 | 0.00 | 0.00 | 50 | 1017.0 |
| 20260504150517 | 17 | 203 | 6.4 | 14.5 | 0.00 | 0.00 | 0.00 | 57 | 1018.4 |
| 20260504140537 | 13 | 270 | 3.2 | 6.4 | 0.00 | 0.00 | 0.00 | 62 | 1018.6 |
| 20260504130517 | 11 | 203 | 1.6 | 4.8 | 0.00 | 0.00 | 0.00 | 77 | 1018.3 |
| 20260504110517 | 4 | 0.0 | 3.2 | 0.00 | 0.00 | 0.00 | 90 | 1017.3 | |
| 20260504100516 | 5 | 0 | 1.6 | 1.6 | 0.00 | 0.00 | 0.00 | 91 | 1017.6 |
| 20260504081536 | 5 | 0.0 | 3.2 | 0.00 | 0.00 | 0.00 | 88 | 1017.4 | |
| 20260504080516 | 5 | 0.0 | 3.2 | 0.00 | 0.00 | 0.00 | 88 | 1017.3 | |
| 20260504050516 | 7 | 0.0 | 3.2 | 0.00 | 0.00 | 0.00 | 78 | 1018.0 | |
| 20260504045516 | 7 | 0.0 | 0.0 | 0.00 | 0.00 | 0.00 | 78 | 1017.8 | |
| 20260504044516 | 7 | 0.0 | 0.0 | 0.00 | 0.00 | 0.00 | 76 | 1017.8 | |
| 20260504043516 | 7 | 0.0 | 3.2 | 0.00 | 0.00 | 0.00 | 76 | 1017.9 | |
| 20260504042536 | 7 | 0.0 | 3.2 | 0.00 | 0.00 | 0.00 | 76 | 1018.0 | |
| 20260504041536 | 7 | 0.0 | 0.0 | 0.00 | 0.00 | 0.00 | 74 | 1017.9 | |
| 20260504040516 | 7 | 0.0 | 1.6 | 0.00 | 0.00 | 0.00 | 74 | 1017.8 | |
| 20260504035537 | 8 | 0.0 | 0.0 | 0.00 | 0.00 | 0.00 | 72 | 1017.6 | |
| 20260504034517 | 8 | 0.0 | 3.2 | 0.00 | 0.00 | 0.00 | 70 | 1017.6 | |
| 20260504033517 | 8 | 0.0 | 1.6 | 0.00 | 0.00 | 0.00 | 69 | 1017.5 | |
| 20260504032517 | 9 | 0.0 | 3.2 | 0.00 | 0.00 | 0.00 | 69 | 1017.8 | |
| 20260504031517 | 9 | 0.0 | 1.6 | 0.00 | 0.00 | 0.00 | 67 | 1017.8 | |
| 20260504030516 | 10 | 0.0 | 0.0 | 0.00 | 0.00 | 0.00 | 66 | 1017.3 | |
| 20260504025517 | 9 | 0.0 | 1.6 | 0.00 | 0.00 | 0.00 | 66 | 1017.4 | |
| 20260504024516 | 9 | 0.0 | 0.0 | 0.00 | 0.00 | 0.00 | 68 | 1017.5 | |
| 20260504023536 | 10 | 0.0 | 0.0 | 0.00 | 0.00 | 0.00 | 65 | 1017.5 | |
| 20260504022517 | 10 | 0.0 | 3.2 | 0.00 | 0.00 | 0.00 | 63 | 1017.4 | |
| 20260504021517 | 10 | 0 | 1.6 | 1.6 | 0.00 | 0.00 | 0.00 | 65 | 1017.2 |
| 20260504020516 | 10 | 0 | 1.6 | 1.6 | 0.00 | 0.00 | 0.00 | 64 | 1017.2 |